This is the latest recevied weather packets stored in our database for station/object KO6HRZ. If no packets are shown the sender has not sent any weather packets the latest 10 day(s).
| Time | Temp. | Humidity | Pressure | Rain* | Wind** | Luminosity | Snow |
|---|---|---|---|---|---|---|---|
| 1777597053 | 28.33° C | 48% | 1011.1 hPa | 0 mm | - | 61 W/m² | - |
| 1777596452 | 28.33° C | 46% | 1011.1 hPa | 0 mm | - | 227 W/m² | - |
| 1777595852 | 28.89° C | 46% | 1011 hPa | 0 mm | - | 224 W/m² | - |
| 1777595249 | 28.89° C | 45% | 1011 hPa | 0 mm | - | 198 W/m² | - |
| 1777594647 | 28.89° C | 45% | 1011.4 hPa | 0 mm | - | 149 W/m² | - |
| 1777594046 | 29.44° C | 46% | 1011.2 hPa | 0 mm | - | 117 W/m² | - |
| 1777593443 | 29.44° C | 44% | 1011.3 hPa | 0 mm | - | 109 W/m² | - |
| 1777592841 | 30° C | 45% | 1011.3 hPa | 0 mm | - | 114 W/m² | - |
| 1777592239 | 30° C | 44% | 1011.3 hPa | 0 mm | - | 143 W/m² | - |
| 1777591638 | 31.11° C | 44% | 1011.2 hPa | 0 mm | - | 269 W/m² | - |
| 1777591036 | 31.11° C | 41% | 1011.6 hPa | 0 mm | - | 484 W/m² | - |
| 1777590433 | 30.56° C | 43% | 1011.6 hPa | 0 mm | - | 593 W/m² | - |
| 1777589832 | 31.11° C | 42% | 1011.7 hPa | 0 mm | - | 644 W/m² | - |
| 1777589232 | 31.67° C | 39% | 1011.8 hPa | 0 mm | - | 669 W/m² | - |
| 1777588630 | 30° C | 41% | 1011.7 hPa | 0 mm | - | 694 W/m² | - |
| 1777588028 | 30.56° C | 39% | 1012.1 hPa | 0 mm | - | 718 W/m² | - |
| 1777587423 | 30.56° C | 40% | 1012.3 hPa | 0 mm | - | 738 W/m² | - |
| 1777586822 | 30° C | 40% | 1012.4 hPa | 0 mm | - | 757 W/m² | - |
| 1777586219 | 29.44° C | 42% | 1012.6 hPa | 0 mm | - | 774 W/m² | - |
| 1777585617 | 30° C | 43% | 1012.5 hPa | 0 mm | - | 791 W/m² | - |
| 1777585014 | 30° C | 41% | 1012.6 hPa | 0 mm | - | 808 W/m² | - |
| 1777584409 | 29.44° C | 43% | 1012.9 hPa | 0 mm | - | 826 W/m² | - |
| 1777583804 | 28.33° C | 44% | 1012.9 hPa | 0 mm | - | 836 W/m² | - |
| 1777583199 | 29.44° C | 43% | 1012.9 hPa | 0 mm | - | 846 W/m² | - |
| 1777582598 | 29.44° C | 42% | 1012.8 hPa | 0 mm | - | 850 W/m² | - |
* Rain latest hour (hover to see other rain measurements)
** Current wind speed in m/s (hover to see current wind gust speed)